RH
70 69 69 70 71 71 72 74 74 74 74 74 74 75 75 76 76 48 33 34 34 58 48 35 32 31 31 31 34 30 29 24 18 16 15 14 16 12 16 15 12 14 14 14 21
70 70 70 70 71 72 73 75 75 75 75 74 74 74 74 77 58 37 40 40 48 60 34 36 32 34 31 31 35 34 30 23 15 15 16 14 17 15 16 18 18 17 14 16 21
70 70 70 70 71 72 74 76 76 76 76 75 74 74 74 70 46 29 59 54 54 57 32 30 30 32 31 29 32 29 33 19 20 19 23 20 19 16 20 23 16 19 19 18 19
69 69 70 71 72 72 74 76 76 76 75 75 74 70 73 54 20 56 56 60 62 38 34 33 32 34 32 29 24 33 26 25 25 23 30 28 21 22 22 22 17 16 18 20 19
69 70 71 72 74 73 74 76 74 73 78 77 72 70 64 37 20 55 63 58 46 40 36 35 32 31 30 21 25 32 31 24 24 29 31 28 28 26 23 18 15 15 18 20 22
70 70 72 73 75 74 76 75 73 78 78 75 68 71 46 17 36 52 52 45 37 37 34 34 30 27 32 29 30 23 26 30 29 29 27 28 24 21 17 14 14 16 18 18 20
70 71 72 75 75 75 77 72 75 80 72 68 68 52 39 30 34 49 50 42 38 34 35 32 34 38 29 34 27 35 43 34 29 26 29 27 33 27 16 14 16 17 17 21 20
70 72 73 75 75 76 78 72 83 80 72 66 65 49 31 36 45 48 41 38 36 36 37 39 38 41 39 31 36 38 34 40 21 25 25 33 32 15 11 17 23 21 23 25 26
72 72 74 76 77 79 79 72 83 79 71 68 57 51 41 43 32 32 39 39 39 40 42 38 42 42 38 53 40 30 36 29 23 21 26 36 36 21 20 25 26 25 25 25 27
72 73 76 77 79 81 72 72 72 74 55 48 40 34 25 30 33 36 40 43 45 46 51 53 50 51 42 40 50 56 22 18 21 18 23 37 37 29 23 22 22 22 23 26 27
72 75 76 78 76 75 54 41 32 38 30 42 42 36 33 26 38 39 42 45 45 49 48 44 53 44 28 23 23 26 31 32 25 21 27 31 33 29 25 25 28 25 23 22 28
73 77 77 78 72 66 36 41 58 59 42 40 43 40 36 24 32 34 39 47 45 46 32 47 57 35 32 36 40 36 35 34 29 26 29 27 29 25 22 23 25 36 36 38 42
74 78 78 79 65 48 32 40 40 60 49 39 40 31 27 22 31 39 47 45 46 47 38 42 36 30 37 42 47 39 40 36 33 26 24 28 33 25 19 25 42 42 46 48 51
73 74 76 72 46 33 37 32 49 58 45 37 38 36 18 28 39 25 34 44 44 45 44 44 34 44 43 42 34 40 27 30 34 36 48 24 48 27 20 43 45 43 44 49 55
74 74 74 54 28 27 35 37 54 62 82 36 37 25 16 30 33 26 26 22 36 24 24 27 24 30 50 36 31 38 31 34 38 43 43 35 50 30 20 30 48 43 45 49 49
73 74 72 31 25 32 41 58 63 61 99 60 35 29 21 28 29 22 25 20 20 26 18 17 16 23 35 31 31 32 42 29 30 43 74 37 40 39 40 45 48 39 40 41 40
70 73 38 18 27 31 51 62 56 59 25 42 34 25 26 38 30 23 21 24 36 41 25 23 18 36 25 28 26 26 30 62 65 68 49 46 81 95 74 59 48 44 40 41 42
69 73 38 21 29 41 58 35 59 36 38 28 24 24 45 33 25 24 19 22 29 34 35 34 42 26 24 24 31 29 26 50 89 68 74 51 92 94 91 92 93 89 88 79 69
66 49 23 24 32 49 42 58 47 38 33 33 25 26 23 22 29 24 20 32 37 37 57 44 38 29 22 20 23 29 31 21 48 36 46 30 83 96 84 93 96 96 91 92 94
38 42 23 25 31 43 28 42 39 34 32 28 28 22 26 28 33 27 20 36 44 39 33 33 45 24 20 18 19 20 18 42 37 75 48 24 80 95 96 96 95 96 97 97 94
38 24 21 28 38 19 39 38 37 31 31 33 31 32 31 33 33 27 23 31 30 33 29 27 30 34 26 23 45 48 56 53 32 33 67 50 94 97 96 95 95 96 95 96 96
37 22 23 33 19 18 30 36 38 35 30 32 33 37 40 34 26 24 26 26 26 31 38 26 44 67 28 17 65 60 74 51 61 81 54 46 93 94 95 96 93 91 64 62 67
22 20 27 24 15 18 32 41 38 38 39 37 38 42 36 28 31 26 28 26 26 35 47 51 42 56 34 22 36 43 43 57 49 41 60 64 94 83 68 66 61 61 48 39 35
22 20 24 24 21 20 26 36 38 39 39 33 39 30 29 30 26 31 28 28 32 36 52 40 32 36 55 45 69 75 70 66 66 78 60 84 84 59 52 43 38 36 34 35 32
27 33 38 24 27 29 28 35 37 39 34 36 33 32 32 37 30 29 31 31 28 39 35 39 48 39 28 69 60 59 66 55 65 58 69 79 70 54 45 39 36 33 33 31 29
23 26 26 31 36 30 35 40 45 40 45 41 40 35 31 36 37 47 42 37 39 34 32 28 42 33 36 51 49 65 54 48 45 48 44 39 52 37 33 33 36 36 35 31 32
39 35 30 42 34 26 34 44 46 43 44 41 41 38 33 39 43 40 38 38 39 47 44 36 41 46 41 22 51 67 78 52 45 40 49 67 56 36 40 40 40 39 31 35 37
Wind_Speed
17 18 18 18 18 17 16 16 15 14 13 14 14 13 12 12 14 9 8 4 1 6 3 6 6 4 4 5 5 3 7 10 13 11 10 2 6 5 3 12 5 7 13 7 6
18 18 19 19 18 17 17 16 15 15 14 13 12 12 12 12 12 9 4 1 3 9 7 9 7 6 6 5 5 8 10 11 7 9 9 10 9 13 10 11 13 13 12 11 3
18 19 19 19 19 18 18 17 16 16 15 14 12 9 9 11 7 4 3 3 6 7 4 5 4 6 10 8 9 8 12 14 11 9 13 15 15 13 15 17 17 14 15 13 16
20 20 20 20 19 19 19 17 17 16 16 14 11 9 8 6 4 7 3 4 7 4 5 4 6 8 8 11 11 12 16 17 18 16 13 17 17 18 17 18 18 19 12 14 13
20 21 21 20 19 19 19 18 18 17 13 10 7 5 7 5 2 4 3 4 2 4 7 8 10 10 12 9 9 17 20 18 15 17 19 20 21 23 21 19 18 19 20 20 18
22 21 21 21 21 20 18 18 18 12 9 5 2 3 5 6 3 2 1 1 3 5 6 7 6 7 12 15 14 12 12 16 16 19 20 24 25 21 19 19 20 20 22 22 21
22 23 22 22 21 21 19 19 12 6 5 2 1 4 4 5 5 2 2 2 2 4 6 5 6 8 5 10 9 12 18 18 20 19 17 16 23 22 24 19 17 18 19 21 18
22 23 23 22 21 21 18 16 6 3 2 1 3 4 3 3 3 1 1 1 1 2 3 3 5 10 12 11 13 18 18 19 7 2 6 7 27 19 15 6 13 14 13 13 14
23 23 23 23 22 22 18 10 2 2 3 2 5 4 4 2 2 5 4 5 2 2 2 3 5 8 8 11 13 16 16 18 16 8 7 13 22 10 7 11 16 16 15 13 12
23 24 23 22 21 20 17 5 2 6 6 5 4 4 4 7 6 6 2 3 4 3 5 6 6 9 10 11 14 14 20 23 24 15 14 19 28 24 21 22 24 22 19 16 12
24 24 22 19 19 16 11 4 4 5 9 5 5 2 3 11 2 2 3 4 4 6 9 7 8 14 17 17 21 23 24 28 25 21 23 24 29 26 21 20 19 18 20 16 10
24 23 22 19 16 14 7 5 4 3 3 2 2 2 2 7 4 6 6 5 4 11 12 10 16 19 14 16 19 21 25 29 28 20 20 24 26 23 21 22 17 11 10 7 2
25 24 22 19 10 3 7 5 5 3 5 3 3 4 5 10 5 9 11 9 11 15 16 18 20 23 21 19 20 22 23 26 28 28 26 25 28 27 26 9 4 2 4 4 5
24 24 20 20 3 3 3 8 3 4 5 4 1 5 9 9 2 10 9 6 6 11 15 12 7 10 16 21 20 28 23 29 28 24 21 23 21 23 18 10 6 6 7 6 8
23 20 18 10 6 3 7 6 2 4 4 5 4 3 10 8 11 8 8 7 13 16 14 16 24 20 19 20 20 26 24 26 26 25 24 25 18 17 19 15 12 9 10 10 12
21 15 17 2 1 4 7 2 4 4 2 2 3 9 13 9 5 11 8 9 15 11 14 19 14 12 12 18 21 18 16 23 22 19 17 22 23 20 12 8 15 12 11 13 13
18 9 7 3 6 10 5 4 4 2 5 7 6 12 14 12 5 15 16 11 11 13 13 19 11 8 18 24 20 21 20 9 13 13 17 10 7 10 17 17 14 12 13 14 14
15 5 2 3 7 5 4 5 3 4 6 8 7 16 6 14 6 16 14 12 14 16 13 12 17 17 27 23 17 22 19 11 12 11 11 13 6 7 14 14 13 11 11 12 13
11 2 1 9 5 4 6 5 5 6 6 12 17 6 1 5 7 11 18 8 7 13 10 14 14 30 28 26 18 17 19 18 13 19 17 13 7 7 12 11 15 14 16 15 16
3 2 4 14 5 4 3 4 3 6 8 7 7 5 10 13 11 15 10 10 10 12 13 16 27 24 21 19 18 20 17 13 10 9 17 17 8 10 16 17 17 17 14 12 14
2 3 8 13 4 4 4 5 4 5 7 7 7 9 7 13 13 13 7 6 13 14 17 21 15 20 17 19 20 17 7 9 11 12 8 12 6 9 14 13 15 17 16 15 14
3 1 9 9 4 4 5 4 2 5 7 2 4 4 8 12 9 6 11 10 15 16 20 14 10 12 22 15 12 11 6 9 7 7 11 10 5 9 12 16 17 16 17 16 15
3 3 7 7 5 5 5 4 5 6 8 5 5 4 7 10 7 9 12 12 15 16 11 10 7 12 15 12 11 15 15 14 10 12 10 7 7 11 14 17 16 17 18 17 17
3 2 4 7 4 4 2 3 3 6 5 6 3 5 8 9 4 7 12 13 10 8 13 13 12 13 13 18 17 10 17 21 3 6 6 10 12 19 19 19 19 18 17 17 16
6 5 3 4 6 6 3 3 4 6 4 7 0 7 9 6 8 8 13 10 7 8 12 8 13 15 17 7 14 17 19 22 19 17 12 12 12 17 19 20 19 18 20 19 16
4 4 3 4 4 4 4 5 5 6 3 3 6 10 8 6 7 14 14 12 6 9 12 11 10 15 13 11 11 15 18 18 18 14 14 15 12 20 19 19 20 21 19 16 19
3 2 5 1 3 5 5 4 4 6 3 2 7 9 7 9 13 14 10 9 8 8 11 10 11 11 8 16 6 5 15 18 17 11 13 13 17 22 22 21 23 23 16 19 22
Wind_Direction
352 351 348 345 342 338 334 331 327 324 319 318 317 316 315 318 303 249 268 48 122 164 238 161 197 182 205 221 240 274 254 261 266 272 278 50 264 204 320 273 243 214 262 16 11
351 349 346 343 340 337 333 330 325 320 316 313 314 316 319 325 298 264 79 208 227 176 190 195 199 194 222 230 214 229 246 269 315 326 291 307 275 292 272 261 250 242 248 268 248
351 347 344 342 338 336 333 328 323 318 314 310 307 313 315 308 278 90 18 201 178 183 256 238 265 221 238 227 218 216 247 274 304 295 295 280 278 272 268 263 268 253 252 243 234
349 347 344 341 337 334 331 327 322 317 312 304 303 309 315 269 319 34 55 98 126 230 205 205 220 221 244 229 232 257 256 258 275 277 270 272 283 273 266 262 273 279 262 264 260
349 347 344 340 335 333 330 325 324 322 319 302 294 305 266 213 27 51 28 85 191 219 230 230 245 247 257 265 283 250 265 274 274 266 268 277 266 266 263 268 268 262 263 267 255
348 346 343 340 336 333 330 328 326 329 332 315 292 255 247 240 10 21 343 270 283 239 231 240 257 285 283 272 258 292 293 277 271 269 271 273 270 266 253 255 252 255 259 263 261
346 344 342 339 334 332 332 331 330 349 351 359 224 250 246 34 342 332 282 338 311 294 267 259 285 253 329 268 289 280 278 274 265 255 243 286 271 245 256 255 262 267 267 265 259
345 343 340 336 332 330 331 328 328 346 302 262 245 265 46 20 8 242 310 283 287 280 287 308 274 267 265 280 280 258 265 272 238 238 215 212 271 299 297 252 258 270 268 267 261
343 342 340 336 331 328 333 324 322 289 296 256 253 292 79 167 334 351 316 303 308 271 279 250 256 260 240 255 274 235 262 268 265 217 260 212 276 300 324 286 274 272 266 272 253
342 341 339 335 331 325 330 299 297 244 223 244 247 235 61 350 336 325 341 288 283 266 251 242 248 248 233 247 260 277 279 282 280 270 248 244 264 278 281 279 272 269 266 267 263
340 339 337 335 334 327 323 236 240 175 42 23 355 349 27 347 205 32 344 271 251 243 258 200 261 252 271 282 279 279 280 278 279 282 277 273 274 277 278 272 271 266 264 269 286
341 338 336 335 334 321 328 45 47 341 310 58 301 283 358 336 288 59 331 293 267 274 295 259 255 270 299 295 282 277 275 278 280 281 278 278 272 275 276 280 285 314 303 318 355
342 338 335 333 322 315 60 38 319 251 265 93 34 13 356 330 9 2 352 326 280 287 284 278 284 302 297 285 276 269 268 277 283 297 285 278 273 273 263 271 104 97 81 51 33
341 336 336 329 284 354 56 344 277 239 238 65 69 47 352 320 139 21 3 301 281 295 309 283 298 292 285 280 286 283 292 292 292 290 282 283 282 280 275 166 172 137 90 80 61
339 333 333 358 324 359 347 328 193 236 303 42 43 353 350 26 330 56 27 335 304 313 300 276 302 310 305 314 325 297 301 290 287 277 275 269 270 262 258 225 158 115 95 80 65
339 333 322 296 257 26 328 268 234 241 261 36 11 359 354 11 31 339 360 37 279 293 270 281 328 294 13 335 306 337 335 305 278 261 260 265 260 261 277 312 122 102 89 77 66
339 330 353 337 336 331 310 227 270 333 11 3 345 340 323 349 343 357 351 16 31 330 338 317 304 89 20 342 332 341 323 298 291 281 277 348 331 30 52 69 81 69 70 70 61
336 312 69 38 327 302 248 244 341 25 12 356 332 321 36 8 345 355 337 332 37 356 323 333 307 21 350 341 322 313 301 302 305 309 322 314 313 65 62 56 62 59 51 56 56
319 178 291 349 332 277 269 36 13 12 346 330 309 302 102 35 339 349 338 27 39 23 1 311 298 330 320 316 306 311 287 310 284 267 264 266 103 104 82 74 52 44 38 27 24
313 275 26 341 318 252 26 79 57 22 335 325 326 17 327 352 348 339 326 66 7 7 341 316 305 310 307 304 283 294 317 302 285 262 257 246 83 34 34 43 33 31 21 26 30
277 240 14 344 268 37 58 64 74 30 359 335 330 305 336 346 338 327 315 49 12 341 335 317 302 315 316 333 350 318 9 333 302 275 288 279 72 24 39 38 39 23 14 11 11
296 291 354 328 46 41 46 21 358 5 4 0 338 359 336 333 325 320 344 344 355 336 324 325 306 303 314 310 82 38 1 348 336 352 302 291 79 54 40 31 24 16 13 12 11
9 358 11 326 32 66 112 99 52 15 29 14 15 22 353 328 320 356 341 346 345 338 343 333 327 322 334 343 342 335 350 320 283 279 279 315 90 29 31 24 13 2 358 357 355
317 331 61 47 39 16 38 67 63 39 50 3 3 337 339 331 320 303 332 349 360 356 333 323 314 343 333 325 327 349 27 27 354 331 349 38 36 14 10 3 355 352 353 347 344
5 50 356 10 46 56 37 21 17 13 33 15 174 357 339 318 330 344 339 339 9 349 335 331 315 335 315 60 54 51 41 26 33 15 20 2 54 15 354 347 344 345 340 338 343
3 332 71 54 358 348 2 35 16 5 318 18 331 336 324 311 336 317 327 331 346 339 346 337 327 324 319 102 87 56 27 29 12 15 358 350 3 354 343 340 341 340 335 339 347
52 81 300 36 19 313 28 11 22 339 119 5 321 315 328 349 315 304 293 296 296 326 335 333 333 332 330 332 171 40 15 12 355 21 1 6 345 342 342 341 338 327 343 346 336